Location: Unspecified
(51.5147°N, 7.4673°E)
Time: 21:18:14
(UTC+01:00)

Tiros 1 - All Passes

Search period start: 18 February 2026 00:00
Search period end: 28 February 2026 00:00
Orbit: 618 x 649 km, 48.4° (Epoch: 18 February)

Date Brightness Start Highest point End Pass type
(mag) Time Alt. Az. Time Alt. Az. Time Alt. Az.
18 Feb - 09:24:37 10° SSW 09:28:35 29° SSE 09:32:32 10° E daylight
18 Feb - 11:05:31 10° WSW 11:09:59 56° S 11:14:28 10° E daylight
18 Feb - 12:47:10 10° W 12:51:37 52° SSW 12:56:02 10° ESE daylight
18 Feb - 14:29:14 10° W 14:32:55 24° SSW 14:36:36 10° SSE daylight
19 Feb - 08:06:05 10° S 08:08:53 16° SE 08:11:41 10° ESE daylight
19 Feb - 09:45:40 10° SW 09:49:59 41° SSE 09:54:17 10° E daylight
19 Feb - 11:27:02 10° W 11:31:33 59° S 11:36:02 10° ESE daylight
19 Feb - 13:08:49 10° W 13:13:05 40° SSW 13:17:20 10° SE daylight
19 Feb - 14:51:35 10° WSW 14:54:09 15° SW 14:56:42 10° S daylight
20 Feb - 08:26:20 10° SSW 08:30:08 26° SSE 08:33:55 10° E daylight
20 Feb - 10:07:00 10° WSW 10:11:28 53° S 10:15:56 10° E daylight
20 Feb - 11:48:37 10° W 11:53:06 55° S 11:57:32 10° ESE daylight
20 Feb - 13:30:36 10° W 13:34:28 28° SSW 13:38:20 10° SSE daylight
21 Feb - 07:08:12 10° S 07:10:29 14° SE 07:12:45 10° ESE daylight
21 Feb - 08:47:14 10° SW 08:51:29 38° SSE 08:55:43 10° E daylight
21 Feb - 10:28:30 10° WSW 10:33:01 59° S 10:37:30 10° E daylight
21 Feb - 12:10:15 10° W 12:14:36 44° SSW 12:18:55 10° SE daylight
21 Feb - 13:52:42 10° WSW 13:55:44 18° SW 13:58:44 10° S daylight
22 Feb - 07:28:04 10° SSW 07:31:40 23° SSE 07:35:15 10° E daylight
22 Feb - 09:08:30 10° WSW 09:12:57 50° SSE 09:17:23 10° E daylight
22 Feb - 10:50:04 10° W 10:54:34 57° S 10:59:03 10° ESE daylight
22 Feb - 12:31:58 10° W 12:36:00 31° SSW 12:40:01 10° SE daylight
23 Feb - 06:10:37 10° SSE 06:12:04 11° SE 06:13:31 10° ESE visible
23 Feb - 07:48:50 10° SW 07:53:00 34° SSE 07:57:09 10° E daylight
23 Feb - 09:29:57 10° WSW 09:34:29 58° S 09:38:59 10° E daylight
23 Feb - 11:11:40 10° W 11:16:05 48° SSW 11:20:28 10° ESE daylight
23 Feb - 12:53:56 10° W 12:57:18 20° SW 13:00:39 10° SSE daylight
24 Feb - 06:29:53 10° SSW 06:33:13 20° SE 06:36:33 10° E visible
24 Feb - 08:10:00 10° WSW 08:14:26 46° SSE 08:18:50 10° E daylight
24 Feb - 09:51:30 10° W 09:56:02 59° S 10:00:31 10° ESE daylight
24 Feb - 11:33:21 10° W 11:37:31 35° SSW 11:41:39 10° SE daylight
24 Feb - 13:16:47 10° WSW 13:18:27 12° SW 13:20:06 10° SSW daylight
25 Feb - 06:50:27 10° SW 06:54:30 30° SSE 06:58:32 10° E visible
25 Feb - 08:31:24 10° WSW 08:35:56 56° S 08:40:26 10° E daylight
25 Feb - 10:13:05 10° W 10:17:33 51° SSW 10:21:59 10° ESE daylight
25 Feb - 11:55:12 10° W 11:58:50 23° SSW 12:02:28 10° SSE daylight
26 Feb - 05:31:46 10° S 05:34:46 17° SE 05:37:46 10° ESE visible
26 Feb - 07:11:31 10° SW 07:15:55 43° SSE 07:20:16 10° E daylight
26 Feb - 08:52:55 10° W 08:57:29 60° S 09:02:00 10° ESE daylight
26 Feb - 10:34:44 10° W 10:39:01 39° SSW 10:43:15 10° SE daylight
26 Feb - 12:17:37 10° WSW 12:20:02 14° SW 12:22:27 10° S daylight
27 Feb - 05:52:05 10° SSW 05:56:01 27° SSE 05:59:54 10° E visible
27 Feb - 07:32:51 10° WSW 07:37:23 54° S 07:41:53 10° E daylight
27 Feb - 09:14:30 10° W 09:19:01 54° S 09:23:29 10° ESE daylight
27 Feb - 10:56:31 10° W 11:00:22 27° SSW 11:04:12 10° SSE daylight
